#timestamp,LO_Frequency,Hit,StdDev 
1682240415.0,286047000.1,N
1682240415.9,286047000.1,N
1682240435.8,286046999.3,N
1682240455.6,286046997.2,N
1682240475.4,286046998.0,N
1682240495.3,286046996.1,N
1682240515.1,286046994.6,Y
1682240535.9,286046994.6,P
1682240555.7,286046994.7,N
1682240575.5,286046993.2,N
1682240595.4,286046988.6,Y
1682240615.2,286046994.3,P
1682240635.1,286046994.0,P
1682240636.0,286046994.0,P
1682240655.8,286046993.8,Y
1682240675.6,286047000.3,P
1682240695.5,286047001.0,N
1682240715.3,286047000.1,N
1682240735.1,286047001.0,N
1682240755.9,286047000.9,N
1682240775.7,286047001.5,N
1682240795.6,286047000.2,N
1682240815.4,286046999.9,N
1682240835.2,286047000.9,N
1682240855.1,286046998.8,N
1682240856.0,286046998.8,N
1682240875.8,286046998.6,N
1682240895.6,286046998.7,N
1682240915.5,286047000.9,N
1682240935.3,286047001.2,N
1682240955.1,286046998.6,N
1682240975.9,286047001.0,N
1682240995.7,286047000.4,N
1682241015.6,286047001.1,N
1682241035.4,286046998.1,N
1682241055.2,286047001.1,N
1682241075.1,286046998.3,N
1682241076.0,286046998.3,N
1682241095.8,286046996.5,N
1682241115.6,286046997.2,N
1682241135.5,286046999.3,N
1682241155.3,286047001.2,N
1682241175.2,286046999.2,N
1682241195.9,286046998.6,N
1682241215.7,286047000.6,N
1682241235.6,286047001.0,N
1682241255.4,286047000.8,N
1682241275.2,286046998.8,N
1682241295.1,286046999.6,N
1682241296.0,286046999.6,N
1682241315.8,286046999.1,N
1682241335.7,286046996.5,N
1682241355.5,286046999.2,N
1682241375.3,286046998.3,N
1682241395.2,286046998.8,N
1682241415.0,286046998.1,N
1682241415.9,286046998.1,N
1682241435.8,286046998.7,N
1682241455.6,286046998.8,N
1682241475.4,286046998.2,N
1682241495.3,286047000.7,N
1682241515.1,286047000.3,N
1682241535.8,286047000.8,N
1682241555.7,286047001.1,N
1682241575.5,286047001.1,N
1682241595.4,286046998.1,N
1682241615.2,286047001.1,N
1682241635.0,286046999.0,N
1682241635.9,286046999.0,N
1682241655.8,286046999.1,N
1682241675.6,286046999.4,N
1682241695.4,286046996.6,N
1682241715.3,286046998.9,N
1682241735.1,286046999.4,N
1682241755.9,286046998.4,N
1682241775.7,286046998.3,N
1682241795.5,286046999.5,N
1682241815.4,286046996.5,Y
1682241835.2,286046998.3,P
1682241855.0,286046998.6,P
1682241856.0,286046998.6,P
1682241875.8,286046998.2,Y
1682241895.6,286046999.8,P
1682241915.5,286047002.0,P
1682241935.3,286047002.1,N
1682241955.1,286047001.2,N
1682241975.9,286046999.2,N
1682241995.7,286046996.6,N
1682242015.5,286046995.0,N
1682242035.4,286046997.6,N
1682242055.2,286046993.4,N
1682242075.1,286046993.6,N
1682242076.0,286046993.6,N
1682242095.8,286046993.4,N
1682242115.6,286046994.9,N
1682242135.5,286046995.5,N
1682242155.3,286046998.0,N
1682242175.2,286046997.5,N
1682242195.9,286046996.5,N
1682242215.7,286046996.8,N
1682242235.6,286046996.5,N
1682242255.4,286046999.3,N
1682242275.2,286046999.4,N
1682242295.1,286046998.4,N
1682242296.0,286046998.4,N
1682242315.8,286046998.8,N
1682242335.7,286046998.3,N
1682242355.5,286046998.7,N
1682242375.3,286046997.0,N
1682242395.2,286046995.0,N
1682242415.9,286046995.3,N
1682242435.7,286046995.1,N
1682242455.6,286046996.0,N
1682242475.4,286046996.1,N
1682242495.3,286046996.3,N
1682242515.1,286046993.7,Y
1682242516.0,286046993.7,P
1682242535.8,286046996.6,N
1682242555.7,286046996.7,N
1682242575.5,286046997.6,N
1682242595.3,286046997.2,N
1682242615.2,286046995.5,Y
1682242635.0,286046998.2,P
1682242635.9,286046998.2,N
1682242655.8,286047001.0,N
1682242675.6,286046998.1,N
1682242695.4,286047001.5,N
1682242715.3,286047002.5,N
1682242735.1,286047002.8,N
1682242755.8,286047000.9,N
1682242775.7,286047002.3,N
1682242795.5,286047000.3,N
1682242815.4,286046999.3,N
1682242835.2,286047000.5,N
1682242855.0,286046998.5,N
1682242855.9,286046998.5,N
1682242875.8,286047001.1,N
1682242895.6,286047000.4,N
1682242915.4,286046999.7,N
1682242935.3,286047001.0,N
1682242955.1,286046998.7,N
1682242975.9,286046998.3,N
1682242995.7,286046998.8,N
1682243015.5,286047000.7,N
1682243035.4,286046998.6,N
1682243055.2,286046998.8,N
1682243075.0,286046998.3,N
1682243075.9,286046998.3,N
1682243095.8,286047001.2,N
1682243115.6,286047001.0,N
1682243135.5,286047000.6,N
1682243155.3,286047000.5,N
1682243175.1,286047000.5,N
1682243195.9,286047000.6,N
1682243215.7,286047002.7,N
1682243235.6,286046998.1,N
1682243255.4,286047000.4,N
1682243275.2,286047002.4,N
1682243295.1,286047002.3,N
1682243296.0,286047002.3,N
1682243315.8,286047004.1,N
1682243335.6,286047003.9,N
1682243355.5,286047001.4,N
1682243375.3,286047004.4,N
1682243395.2,286047004.0,N
1682243415.9,286047003.9,N
1682243435.7,286047004.0,N
1682243455.6,286047001.5,N
1682243475.4,286047004.3,N
1682243495.2,286047003.1,N
1682243515.1,286047006.0,N
1682243516.0,286047006.0,N
1682243535.8,286047003.2,N
1682243555.7,286047005.5,N
1682243575.5,286047003.8,N
1682243595.3,286047001.4,N
1682243615.2,286047001.4,N
1682243635.0,286047001.9,N
1682243635.9,286047001.9,N
1682243655.7,286047002.1,N
1682243675.6,286047001.6,N
1682243695.4,286047001.9,N
1682243715.3,286047002.5,N
1682243735.1,286047002.8,N
1682243736.0,286047002.8,N
1682243755.8,286047004.4,N
1682243775.7,286047004.3,Y
1682243795.5,286046998.5,P
1682243815.3,286047001.2,N
1682243835.2,286047000.7,N
1682243855.0,286047000.5,N
1682243855.9,286047000.5,N
1682243875.8,286047001.0,N
1682243895.6,286047001.0,N
1682243915.4,286047000.4,N
1682243935.3,286047001.2,N
1682243955.1,286046998.3,N
1682243975.8,286046998.5,N
1682243995.7,286046999.9,N
